Location: Tierra del Sol
(32.6128°N, 116.3319°W)
Time: 14:10:07
(UTC-07:00)

Hubble Space Telescope - Pass Details

Date: 10 October 2017
Orbit: 537 x 541 km, 28.5° (Epoch: 22 October)

Event Time Altitude Azimuth Distance (km) Brightness Sun altitude
Exits shadow 05:19:02 27° 205° (SSW) 1,043 1.9 -19.1°
Maximum altitude 05:19:22 28° 196° (SSW) 1,033 2.0 -19.0°
Drops below altitude 10° 05:22:55 10° 137° (SE) 1,786 4.0 -18.3°
Sets 05:25:24 0° 125° (SE) 2,676 5.2 -17.7°
